Home > Weather > Cuenca > Past weeks

Flag for Ecuador Past Weather in Cuenca, Ecuador — Yesterday and Last 2 Weeks

Now
55 °F

Passing clouds.


Feels Like: 54 °F
Forecast: 38 / 62 °F
Wind: 6 mph from Northeast

Location: Cuenca / Mariscal Lamar

Current Time: Jul 2, 2016 at 12:44:51 AM

Latest Report: Jul 1, 2016 at 10:00 PM


Visibility: N/A

Pressure: 30.39 "Hg (22.40 "Hg at 2554m altitude)

Humidity: 72%

Dew Point: 46 °F

Location of CuencaLocation

Past Weather in Cuenca — Graph

°F

Cuenca Temperature Yesterday

Maximum temperature yesterday: 66 °F (at 2:00 PM)
Minimum temperature yesterday: 48 °F (at 6:00 AM)
Average temperature yesterday: 58 °F

High & Low Weather Summary for the Past Weeks

 TemperatureHumidityPressure
High72 °F (Jun 25, 2:00 PM)100% (Jun 17, 6:00 AM)30.42 "Hg (Jun 17, 6:00 AM)
Low48 °F (Jul 1, 6:00 AM)40% (Jul 1, 4:00 PM)30.21 "Hg (Jun 25, 3:00 PM)
Average59 °F73%30.32 "Hg
* Reported Jun 17 6:00 AM — Jul 1 10:00 PM, Cuenca, Weather by CustomWeather, © 2016

Note: Actual official high and low records may vary slightly from our data, if they occured in-between our weather recording intervals... More about our weather records

Advertising

Cuenca Weather History for the Previous 24 Hours

Scroll right to see more
 ConditionsComfort  
Time TempWeatherWind HumidityBarometerVisibility
10:00 PM
Fri, Jul 1
55 °FPassing clouds.6 mph72%30.39 "HgN/A
9:00 PM55 °FPassing clouds.5 mph67%30.39 "HgN/A
8:00 PM57 °FOvercast.6 mph63%30.36 "HgN/A
7:00 PM57 °FOvercast.6 mph63%30.33 "HgN/A
6:00 PM59 °FOvercast.10 mph59%30.30 "HgN/A
5:00 PM63 °FMore clouds than sun.10 mph49%30.30 "HgN/A
4:00 PM66 °FPartly sunny.15 mph40%30.30 "HgN/A
3:00 PM66 °FPartly sunny.15 mph46%30.30 "HgN/A
2:00 PM66 °FBroken clouds.12 mph46%30.33 "HgN/A
1:00 PM63 °FPartly sunny.13 mph52%30.33 "HgN/A
12:00 PM63 °FPartly sunny.8 mph52%30.36 "HgN/A
11:00 AM63 °FBroken clouds.7 mph56%30.39 "HgN/A
10:00 AM59 °FBroken clouds.2 mph63%30.39 "HgN/A
9:00 AM54 °FPartly sunny.2 mph72%30.39 "HgN/A
8:00 AM50 °FBroken clouds.2 mph82%30.39 "HgN/A
7:00 AM48 °FScattered clouds.1 mph87%30.36 "HgN/A
6:00 AM48 °FPassing clouds.2 mph87%30.33 "HgN/A
Weather by CustomWeather, © 2016

See weather overviewHow to use our weather pages